GW7415 Weather Reports


time (UTC)temp
C
wind
direction
speed
KPH
gust
KPH
rain 1hr
cm
rain 24hr
cm
rain mn
cm
humidity
%
barometer
mb
20260906230322 30 217 0.0 0.0 0.00 0.00 0.00 27 1020.0
20260906225820 30 219 1.6 1.6 0.00 0.00 0.00 25 1020.0
20260906225316 30 229 0.0 0.0 0.00 0.00 0.00 25 1020.1
20260906224812 29 219 1.6 1.6 0.00 0.00 0.00 27 1020.4
20260906224308 30 228 0.0 0.0 0.00 0.00 0.00 28 1020.5
20260906223804 30 226 1.6 1.6 0.00 0.00 0.00 26 1020.4
20260906223300 31 195 0.0 0.0 0.00 0.00 0.00 24 1020.2
20260906222757 31 243 0.0 1.6 0.00 0.00 0.00 23 1020.2
20260906222257 31 224 0.0 1.6 0.00 0.00 0.00 29 1020.2
20260906221754 30 245 1.6 3.2 0.00 0.00 0.00 24 1020.1
20260906221249 31 226 0.0 0.0 0.00 0.00 0.00 25 1020.4
20260906220744 32 227 0.0 0.0 0.00 0.00 0.00 26 1020.4
20260906220239 31 216 0.0 0.0 0.00 0.00 0.00 27 1020.4
20260906215738 30 232 0.0 0.0 0.00 0.00 0.00 28 1020.6
20260906215233 30 233 0.0 1.6 0.00 0.00 0.00 29 1020.7
20260906214731 29 194 1.6 1.6 0.00 0.00 0.00 31 1020.8
20260906214227 28 218 0.0 1.6 0.00 0.00 0.00 32 1020.7
20260906213726 28 227 0.0 1.6 0.00 0.00 0.00 29 1020.8
20260906213225 28 229 0.0 0.0 0.00 0.00 0.00 29 1020.7
20260906212723 29 225 0.0 0.0 0.00 0.00 0.00 27 1021.0
20260906212219 29 233 0.0 0.0 0.00 0.00 0.00 26 1021.1
20260906211719 29 219 0.0 0.0 0.00 0.00 0.00 29 1021.0
20260906211214 29 225 0.0 0.0 0.00 0.00 0.00 27 1021.0
20260906210709 28 220 0.0 0.0 0.00 0.00 0.00 28 1021.3
20260906210209 28 223 0.0 0.0 0.00 0.00 0.00 28 1021.1
20260906205704 29 220 1.6 1.6 0.00 0.00 0.00 28 1021.3
20260906205201 30 220 1.6 1.6 0.00 0.00 0.00 25 1021.4
20260906204701 30 218 0.0 0.0 0.00 0.00 0.00 25 1021.5
20260906204200 30 219 0.0 0.0 0.00 0.00 0.00 26 1021.7
20260906203700 31 225 4.8 8.0 0.00 0.00 0.00 23 1021.7
20260906203155 31 234 0.0 0.0 0.00 0.00 0.00 28 1021.8
20260906202652 31 227 0.0 1.6 0.00 0.00 0.00 24 1021.9
20260906202151 30 230 0.0 0.0 0.00 0.00 0.00 28 1021.9
20260906201647 29 210 1.6 1.6 0.00 0.00 0.00 27 1022.1
20260906201145 29 223 0.0 1.6 0.00 0.00 0.00 28 1022.0
20260906200642 28 223 0.0 0.0 0.00 0.00 0.00 30 1022.4
20260906200138 28 206 0.0 0.0 0.00 0.00 0.00 31 1022.4
20260906195632 28 230 0.0 1.6 0.00 0.00 0.00 25 1022.4
20260906195129 29 236 0.0 1.6 0.00 0.00 0.00 26 1022.5
20260906194625 30 220 0.0 1.6 0.00 0.00 0.00 28 1022.5
20260906194120 29 233 1.6 3.2 0.00 0.00 0.00 25 1022.6
20260906193620 29 218 1.6 1.6 0.00 0.00 0.00 25 1022.6
20260906193116 28 216 1.6 3.2 0.00 0.00 0.00 26 1022.9
20260906192611 29 224 1.6 3.2 0.00 0.00 0.00 26 1022.9
20260906192110 29 238 0.0 1.6 0.00 0.00 0.00 26 1022.9
20260906191606 30 229 0.0 0.0 0.00 0.00 0.00 25 1022.9
20260906191105 30 241 0.0 1.6 0.00 0.00 0.00 23 1023.1
20260906190605 30 216 0.0 0.0 0.00 0.00 0.00 24 1023.2
20260906190059 29 224 3.2 3.2 0.00 0.00 0.00 26 1023.2
20260906185558 29 188 1.6 3.2 0.00 0.00 0.00 25 1023.1
20260906185057 28 211 1.6 1.6 0.00 0.00 0.00 25 1023.2
20260906184552 28 258 3.2 3.2 0.00 0.00 0.00 25 1023.4
20260906184048 28 200 0.0 1.6 0.00 0.00 0.00 25 1023.6
20260906183544 28 238 3.2 4.8 0.00 0.00 0.00 25 1023.4
20260906183039 28 256 1.6 3.2 0.00 0.00 0.00 25 1023.6
20260906182534 28 205 0.0 1.6 0.00 0.00 0.00 24 1023.8
20260906182030 28 205 1.6 1.6 0.00 0.00 0.00 25 1023.8
20260906181526 28 218 0.0 0.0 0.00 0.00 0.00 26 1023.8
20260906181021 28 216 3.2 4.8 0.00 0.00 0.00 24 1023.9
20260906180516 28 211 1.6 1.6 0.00 0.00 0.00 27 1024.3
20260906180015 28 227 3.2 4.8 0.00 0.00 0.00 24 1023.9
20260906175514 28 232 0.0 1.6 0.00 0.00 0.00 24 1024.0
20260906175009 29 210 1.6 1.6 0.00 0.00 0.00 22 1024.4
20260906174507 28 302 0.0 1.6 0.00 0.00 0.00 23 1024.3
20260906174003 28 217 0.0 1.6 0.00 0.00 0.00 26 1024.4
20260906173458 27 218 0.0 0.0 0.00 0.00 0.00 25 1024.6
20260906172957 28 214 0.0 0.0 0.00 0.00 0.00 25 1024.6
20260906172453 28 203 0.0 1.6 0.00 0.00 0.00 25 1024.5
20260906171949 28 229 0.0 0.0 0.00 0.00 0.00 26 1024.7
20260906171449 27 219 0.0 0.0 0.00 0.00 0.00 27 1025.0
20260906170944 27 224 0.0 0.0 0.00 0.00 0.00 30 1024.9
20260906170440 26 217 0.0 0.0 0.00 0.00 0.00 31 1024.9
20260906165937 27 217 0.0 0.0 0.00 0.00 0.00 31 1024.9
20260906165436 27 223 0.0 0.0 0.00 0.00 0.00 31 1025.1
20260906164931 26 221 1.6 1.6 0.00 0.00 0.00 31 1025.1
20260906164430 25 217 0.0 0.0 0.00 0.00 0.00 34 1024.9
20260906163927 23 216 0.0 0.0 0.00 0.00 0.00 37 1025.1
20260906163422 22 230 1.6 1.6 0.00 0.00 0.00 40 1025.3
20260906162920 22 235 0.0 0.0 0.00 0.00 0.00 39 1025.2
20260906162419 23 326 1.6 3.2 0.00 0.00 0.00 36 1025.5
20260906161914 23 269 0.0 1.6 0.00 0.00 0.00 36 1025.1
20260906161414 21 200 0.0 1.6 0.00 0.00 0.00 36 1025.2
20260906160913 21 333 1.6 1.6 0.00 0.00 0.00 38 1025.2
20260906160406 21 241 0.0 0.0 0.00 0.00 0.00 39 1025.2
20260906155905 21 82 3.2 4.8 0.00 0.00 0.00 38 1025.2
20260906155358 21 217 0.0 0.0 0.00 0.00 0.00 39 1025.3
20260906154855 21 316 1.6 3.2 0.00 0.00 0.00 39 1025.3
20260906154349 20 241 1.6 3.2 0.00 0.00 0.00 39 1025.2
20260906153848 20 258 1.6 3.2 0.00 0.00 0.00 40 1025.2
20260906153347 20 284 1.6 1.6 0.00 0.00 0.00 40 1025.3
20260906152842 19 2 1.6 1.6 0.00 0.00 0.00 40 1025.5
20260906152337 18 226 0.0 0.0 0.00 0.00 0.00 42 1025.3
20260906151836 18 253 4.8 8.0 0.00 0.00 0.00 42 1025.6
20260906151332 18 204 0.0 1.6 0.00 0.00 0.00 44 1025.7
20260906150827 17 241 0.0 1.6 0.00 0.00 0.00 44 1025.6
20260906150323 17 293 1.6 3.2 0.00 0.00 0.00 45 1025.6
20260906145822 17 317 1.6 3.2 0.00 0.00 0.00 45 1025.8
20260906145320 17 266 3.2 3.2 0.00 0.00 0.00 46 1025.7
20260906144816 16 315 3.2 4.8 0.00 0.00 0.00 45 1025.8
20260906144311 16 241 3.2 3.2 0.00 0.00 0.00 47 1025.9
20260906143810 16 293 4.8 4.8 0.00 0.00 0.00 46 1025.7
20260906143307 16 344 3.2 4.8 0.00 0.00 0.00 46 1025.8
20260906142802 16 260 4.8 4.8 0.00 0.00 0.00 47 1025.8
20260906142257 15 26 1.6 3.2 0.00 0.00 0.00 48 1025.8
20260906141756 15 220 0.0 0.0 0.00 0.00 0.00 50 1025.8
20260906141251 15 233 1.6 3.2 0.00 0.00 0.00 50 1025.7
20260906140750 15 250 4.8 4.8 0.00 0.00 0.00 50 1025.8
20260906140245 14 293 3.2 4.8 0.00 0.00 0.00 51 1025.8
20260906135742 13 266 3.2 3.2 0.00 0.00 0.00 52 1025.8
20260906135238 13 208 1.6 1.6 0.00 0.00 0.00 55 1025.7
20260906134733 14 207 1.6 3.2 0.00 0.00 0.00 53 1025.8
20260906134229 14 237 0.0 1.6 0.00 0.00 0.00 52 1025.9
20260906133724 14 253 0.0 1.6 0.00 0.00 0.00 51 1025.7
20260906133220 14 13 3.2 3.2 0.00 0.00 0.00 51 1025.8
20260906132715 14 328 1.6 1.6 0.00 0.00 0.00 51 1025.6
20260906132210 14 257 3.2 4.8 0.00 0.00 0.00 51 1025.2
20260906131706 13 228 1.6 1.6 0.00 0.00 0.00 51 1025.3
20260906131200 14 274 3.2 3.2 0.00 0.00 0.00 52 1025.2
20260906130656 14 245 1.6 3.2 0.00 0.00 0.00 51 1025.5
20260906130151 14 356 3.2 3.2 0.00 0.00 0.00 50 1025.2
20260906125649 14 305 3.2 3.2 0.00 0.00 0.00 50 1025.2
20260906125148 14 260 3.2 3.2 0.00 0.00 0.00 50 1025.1
20260906124643 15 234 0.0 1.6 0.00 0.00 0.00 50 1025.2
20260906124138 15 280 1.6 3.2 0.00 0.00 0.00 50 1025.2
20260906123637 15 356 3.2 3.2 0.00 0.00 0.00 49 1025.0
20260906123133 15 4 3.2 4.8 0.00 0.00 0.00 49 1025.0
20260906122632 15 336 1.6 3.2 0.00 0.00 0.00 49 1025.0
20260906122127 15 315 4.8 9.7 0.00 0.00 0.00 49 1024.9
20260906121623 15 260 1.6 3.2 0.00 0.00 0.00 49 1025.1
20260906121120 14 224 3.2 4.8 0.00 0.00 0.00 50 1025.0
20260906120615 14 9 3.2 4.8 0.00 0.00 0.00 50 1024.9
20260906120113 14 220 0.0 0.0 0.00 0.00 0.00 51 1024.7
20260906115612 14 214 1.6 3.2 0.00 0.00 0.00 50 1024.9
20260906115108 14 195 1.6 3.2 0.00 0.00 0.00 50 1024.6
20260906114608 14 238 0.0 3.2 0.00 0.00 0.00 51 1025.0
20260906114103 15 238 1.6 1.6 0.00 0.00 0.00 50 1024.9
20260906113602 15 248 4.8 4.8 0.00 0.00 0.00 50 1024.6
20260906113058 15 25 3.2 4.8 0.00 0.00 0.00 50 1024.6
20260906112557 15 228 1.6 1.6 0.00 0.00 0.00 50 1024.5
20260906112054 15 217 1.6 1.6 0.00 0.00 0.00 50 1024.7
20260906111553 15 220 1.6 1.6 0.00 0.00 0.00 50 1024.6
20260906111049 15 93 4.8 9.7 0.00 0.00 0.00 49 1024.6
20260906110548 15 234 0.0 1.6 0.00 0.00 0.00 50 1024.4
20260906110048 15 211 3.2 4.8 0.00 0.00 0.00 49 1024.7
20260906105543 15 225 1.6 1.6 0.00 0.00 0.00 50 1024.5
20260906105039 15 208 0.0 1.6 0.00 0.00 0.00 49 1024.6
20260906104537 15 298 1.6 3.2 0.00 0.00 0.00 49 1024.9
20260906104032 15 258 1.6 1.6 0.00 0.00 0.00 49 1024.4
20260906103530 15 197 3.2 4.8 0.00 0.00 0.00 49 1024.5
20260906103026 15 239 1.6 1.6 0.00 0.00 0.00 50 1024.7
20260906102526 15 219 4.8 8.0 0.00 0.00 0.00 49 1024.6
20260906102021 15 247 1.6 1.6 0.00 0.00 0.00 50 1024.6
20260906101515 15 221 0.0 1.6 0.00 0.00 0.00 50 1024.9
20260906101010 15 284 1.6 4.8 0.00 0.00 0.00 49 1024.9
20260906100506 15 348 4.8 9.7 0.00 0.00 0.00 50 1024.6
20260906100000 15 244 0.0 1.6 0.00 0.00 0.00 50 1025.0
20260906095455 15 337 1.6 1.6 0.00 0.00 0.00 49 1025.0
20260906094950 15 222 0.0 0.0 0.00 0.00 0.00 49 1024.7
20260906094449 15 212 0.0 1.6 0.00 0.00 0.00 49 1024.5
20260906093945 15 237 1.6 1.6 0.00 0.00 0.00 49 1024.6
20260906093441 15 264 0.0 1.6 0.00 0.00 0.00 49 1024.6
20260906092942 15 215 3.2 3.2 0.00 0.00 0.00 50 1024.7
20260906092441 15 208 1.6 4.8 0.00 0.00 0.00 49 1024.5
20260906091937 15 214 0.0 1.6 0.00 0.00 0.00 50 1024.5
20260906091432 15 206 3.2 3.2 0.00 0.00 0.00 50 1024.4
20260906090929 15 265 1.6 1.6 0.00 0.00 0.00 49 1024.7
20260906090424 15 218 1.6 1.6 0.00 0.00 0.00 50 1024.5
20260906085918 15 276 3.2 3.2 0.00 0.00 0.00 48 1024.5
20260906085417 15 222 1.6 3.2 0.00 0.00 0.00 48 1024.5
20260906084917 15 334 6.4 9.7 0.00 0.00 0.00 48 1024.6
20260906084412 15 221 0.0 0.0 0.00 0.00 0.00 49 1024.5
20260906083911 15 297 3.2 4.8 0.00 0.00 0.00 49 1024.5
20260906083407 15 269 3.2 3.2 0.00 0.00 0.00 48 1024.7
20260906082906 16 242 1.6 1.6 0.00 0.00 0.00 48 1024.4
20260906082401 16 245 1.6 1.6 0.00 0.00 0.00 48 1024.4
20260906081857 16 220 0.0 1.6 0.00 0.00 0.00 48 1024.4
20260906081352 16 215 1.6 1.6 0.00 0.00 0.00 48 1024.6
20260906080848 16 283 4.8 4.8 0.00 0.00 0.00 48 1024.5
20260906080345 16 285 4.8 4.8 0.00 0.00 0.00 48 1024.6
20260906075844 15 353 1.6 3.2 0.00 0.00 0.00 48 1024.6
20260906075338 15 281 1.6 3.2 0.00 0.00 0.00 49 1024.4
20260906074834 14 204 1.6 1.6 0.00 0.00 0.00 52 1024.7
20260906074334 15 180 3.2 4.8 0.00 0.00 0.00 49 1024.6
20260906073832 15 191 0.0 0.0 0.00 0.00 0.00 49 1024.5
20260906073328 15 245 1.6 1.6 0.00 0.00 0.00 51 1024.7
20260906072824 13 261 0.0 0.0 0.00 0.00 0.00 53 1024.7
20260906072320 13 248 0.0 0.0 0.00 0.00 0.00 55 1024.9
20260906071815 13 222 0.0 1.6 0.00 0.00 0.00 55 1024.7
20260906071310 12 206 0.0 0.0 0.00 0.00 0.00 55 1024.7
20260906070807 13 196 1.6 3.2 0.00 0.00 0.00 53 1025.0
20260906070302 13 213 0.0 0.0 0.00 0.00 0.00 52 1024.6
20260906065801 16 206 0.0 0.0 0.00 0.00 0.00 49 1024.7
20260906065257 15 226 0.0 0.0 0.00 0.00 0.00 50 1024.7
20260906064753 15 220 0.0 0.0 0.00 0.00 0.00 50 1024.6
20260906064248 15 219 0.0 0.0 0.00 0.00 0.00 50 1024.6
20260906063743 15 203 0.0 0.0 0.00 0.00 0.00 51 1024.5
20260906063239 13 258 0.0 1.6 0.00 0.00 0.00 54 1024.6
20260906062734 13 213 0.0 0.0 0.00 0.00 0.00 54 1024.3
20260906062233 14 213 0.0 0.0 0.00 0.00 0.00 52 1024.6
20260906061729 13 167 1.6 3.2 0.00 0.00 0.00 52 1024.5
20260906061225 13 212 0.0 0.0 0.00 0.00 0.00 52 1024.4
20260906060720 14 167 3.2 3.2 0.00 0.00 0.00 51 1024.3
20260906060218 14 166 1.6 1.6 0.00 0.00 0.00 52 1024.2
20260906055713 15 190 0.0 1.6 0.00 0.00 0.00 51 1024.0
20260906055208 15 218 0.0 0.0 0.00 0.00 0.00 52 1024.3
20260906054704 15 214 0.0 0.0 0.00 0.00 0.00 52 1024.3
20260906054204 15 170 1.6 1.6 0.00 0.00 0.00 48 1024.3
20260906053701 15 217 0.0 0.0 0.00 0.00 0.00 51 1024.0
20260906053155 15 217 0.0 0.0 0.00 0.00 0.00 50 1024.2
20260906052651 15 173 3.2 3.2 0.00 0.00 0.00 50 1024.2
20260906052147 15 238 0.0 0.0 0.00 0.00 0.00 50 1024.3
20260906051644 15 214 0.0 0.0 0.00 0.00 0.00 50 1024.0
20260906051143 16 209 0.0 0.0 0.00 0.00 0.00 48 1024.0
20260906050638 16 220 0.0 0.0 0.00 0.00 0.00 49 1023.9
20260906050134 16 219 0.0 0.0 0.00 0.00 0.00 49 1023.7
20260906045632 16 201 1.6 1.6 0.00 0.00 0.00 52 1023.8
20260906045127 15 228 0.0 0.0 0.00 0.00 0.00 51 1023.8
20260906044623 15 210 0.0 0.0 0.00 0.00 0.00 52 1023.8
20260906044118 15 217 0.0 0.0 0.00 0.00 0.00 52 1023.7
20260906043615 15 216 0.0 0.0 0.00 0.00 0.00 51 1023.7
20260906043110 16 174 0.0 1.6 0.00 0.00 0.00 51 1023.8
20260906042609 16 221 0.0 0.0 0.00 0.00 0.00 50 1023.6
20260906042104 16 210 1.6 3.2 0.00 0.00 0.00 49 1023.4
20260906041600 16 169 1.6 1.6 0.00 0.00 0.00 50 1023.4
20260906041054 16 191 0.0 1.6 0.00 0.00 0.00 49 1023.3
20260906040550 16 206 0.0 0.0 0.00 0.00 0.00 51 1023.6
20260906040045 16 208 0.0 0.0 0.00 0.00 0.00 49 1023.4
20260906035541 17 210 0.0 0.0 0.00 0.00 0.00 48 1023.3
20260906035037 17 213 0.0 0.0 0.00 0.00 0.00 48 1023.3
20260906034536 17 192 0.0 1.6 0.00 0.00 0.00 48 1023.3
20260906034031 17 211 0.0 0.0 0.00 0.00 0.00 47 1023.3
20260906033526 17 202 1.6 1.6 0.00 0.00 0.00 45 1023.3
20260906033022 18 213 0.0 0.0 0.00 0.00 0.00 46 1023.2
20260906032519 18 200 0.0 0.0 0.00 0.00 0.00 46 1023.2
20260906032018 18 212 0.0 0.0 0.00 0.00 0.00 46 1023.2
20260906031514 18 195 0.0 0.0 0.00 0.00 0.00 46 1022.9
20260906031010 18 202 1.6 1.6 0.00 0.00 0.00 45 1022.7
20260906030509 18 210 0.0 0.0 0.00 0.00 0.00 43 1022.7
20260906030008 18 211 0.0 0.0 0.00 0.00 0.00 46 1022.5
20260906025508 18 213 0.0 0.0 0.00 0.00 0.00 45 1022.5
20260906025007 19 212 0.0 0.0 0.00 0.00 0.00 44 1022.5
20260906024502 19 213 0.0 0.0 0.00 0.00 0.00 46 1022.5
20260906024002 20 203 0.0 0.0 0.00 0.00 0.00 44 1022.1
20260906023458 20 209 0.0 0.0 0.00 0.00 0.00 47 1022.1
20260906022953 20 206 0.0 0.0 0.00 0.00 0.00 46 1022.1
20260906022448 20 206 0.0 0.0 0.00 0.00 0.00 45 1021.8
20260906021943 20 208 0.0 0.0 0.00 0.00 0.00 46 1021.8
20260906021443 20 209 0.0 0.0 0.00 0.00 0.00 47 1021.9
20260906020938 21 209 0.0 0.0 0.00 0.00 0.00 46 1021.5
20260906020432 21 209 0.0 0.0 0.00 0.00 0.00 47 1021.7
20260906015927 22 210 0.0 0.0 0.00 0.00 0.00 46 1021.4
20260906015426 22 209 0.0 0.0 0.00 0.00 0.00 41 1021.4
20260906014926 22 213 0.0 0.0 0.00 0.00 0.00 42 1021.3
20260906014426 23 214 0.0 0.0 0.00 0.00 0.00 41 1021.3
20260906013922 23 214 0.0 0.0 0.00 0.00 0.00 40 1021.4
20260906013418 24 221 0.0 0.0 0.00 0.00 0.00 40 1021.4
20260906012913 25 217 0.0 0.0 0.00 0.00 0.00 33 1021.4
20260906012408 25 209 0.0 0.0 0.00 0.00 0.00 32 1021.3
20260906011907 26 222 0.0 0.0 0.00 0.00 0.00 31 1021.3
20260906011403 26 209 0.0 0.0 0.00 0.00 0.00 32 1021.3
20260906010858 26 215 0.0 0.0 0.00 0.00 0.00 32 1021.2
20260906010354 27 220 0.0 0.0 0.00 0.00 0.00 31 1021.3
20260906005849 27 216 0.0 0.0 0.00 0.00 0.00 31 1021.3
20260906005349 27 228 0.0 1.6 0.00 0.00 0.00 29 1021.3
20260906004847 27 217 0.0 0.0 0.00 0.00 0.00 31 1021.3
20260906004347 27 215 1.6 1.6 0.00 0.00 0.00 28 1021.2
20260906003842 28 204 1.6 1.6 0.00 0.00 0.00 28 1021.3
20260906003338 28 206 0.0 0.0 0.00 0.00 0.00 29 1021.2
20260906002833 28 221 1.6 1.6 0.00 0.00 0.00 28 1021.4
20260906002332 28 241 1.6 1.6 0.00 0.00 0.00 29 1021.2
20260906001828 28 219 1.6 1.6 0.00 0.00 0.00 28 1021.3
20260906001323 28 201 1.6 1.6 0.00 0.00 0.00 29 1021.4
20260906000819 28 256 3.2 4.8 0.00 0.00 0.00 27 1021.5
20260906000313 28 226 4.8 4.8 0.00 0.00 0.00 27 1021.3
20260905235808 29 225 0.0 0.0 0.00 0.00 0.00 28 1021.3
20260905235308 29 231 6.4 9.7 0.00 0.00 0.00 28 1021.2
20260905234804 29 211 0.0 0.0 0.00 0.00 0.00 28 1021.2
20260905234259 29 178 0.0 1.6 0.00 0.00 0.00 28 1021.2
20260905233754 30 221 3.2 3.2 0.00 0.00 0.00 27 1021.4
20260905233254 30 221 3.2 4.8 0.00 0.00 0.00 27 1021.2
20260905232753 30 190 0.0 1.6 0.00 0.00 0.00 27 1021.2
20260905232249 30 228 3.2 3.2 0.00 0.00 0.00 27 1021.4
20260905231745 31 187 1.6 3.2 0.00 0.00 0.00 27 1021.2
20260905231240 31 218 3.2 3.2 0.00 0.00 0.00 25 1021.2
20260905230736 31 219 4.8 4.8 0.00 0.00 0.00 25 1021.2